www.pogodaiklimat.ru

Погода и климат >> Архив погоды >> Россия >> Волгоградская область >> Калач-на-Дону


ПОГОДА в Калаче-на-Дону

  • Прогноз погоды в Калаче-на-Дону
  • Монитор погоды в Калаче-на-Дону

АРХИВ ПОГОДЫ в Калаче-на-Дону

Время (UTC), дата Ветер
(напр.,м/с)
 
Видим.   Явления Облачность Т
(С)
Тd
(С)
f
(%)
Тe
(С)
Тes
(С)
Комфортность P
(гПа)
Po
(гПа)
Тmin
(С)
Tmax
(С)
R
(мм)
R24
(мм)
S
(см)
12 14.03 СЗ 2 20 км 5/5 600 м
[Cb cap]
+5.1 -7.3 40 +3 +6 1021.4 1016.6
15 14.03 Ю 1 20 км 9/8 600 м
[Sc diur, vesp Ac trans]
+3.2 -6.5 49 +2 +2 1022.1 1017.3 +5.7
18 14.03 В 1 10 км 3/0
[Ac trans]
-0.3 -4.0 76 -2 -2 1023.1 1018.3
21 14.03 ЮВ 2 10 км 1/0
[Ci fib]
-1.3 -5.2 75 -5 -5 1022.6 1017.8
00 15.03 ЮВ 1 10 км ясно -3.0 -6.1 79 -5 -5 1022.2 1017.3
03 15.03 ЮВ 3 10 км 8/8 600 м
[Sc]
-2.5 -7.1 71 -7 -7 1021.8 1017.0 -3.3
06 15.03 ЮВ 4 20 км 10/0
[Ac As]
-0.7 -6.4 65 -6 -5 1021.2 1016.4
09 15.03 ЮВ 5 20 км 10/0
[Ac und]
+2.2 -6.8 51 -3 -1 1020.1 1015.3
12 15.03 ЮВ 3
{10}
20 км 10/10 600 м
[Sc diur, vesp]
+2.9 -8.4 43 -0 -0 1018.2 1013.4
15 15.03 ЮВ 3 20 км 10/8 600 м
[Sc Ac und]
+3.6 -7.3 45 +1 +1 1016.7 1011.9 +3.7
18 15.03 ЮВ 4 10 км 10/0
[Ac und]
+2.9 -6.5 50 -1 -1 1016.1 1011.3
21 15.03 ЮВ 2 10 км 10/0
[Ac und]
+2.3 -6.4 53 -0 -0 1015.6 1010.8
00 16.03 ЮВ 3 10 км 10/10 600 м
[Sc]
+1.9 -6.6 53 -2 -2 1013.8 1009.1
03 16.03 ЮВ 3 10 км 10/10 600 м
[Sc]
+1.6 -5.6 59 -2 -2 1013.1 1008.4 +1.6
06 16.03 ЮВ 2 20 км 10/10 600 м
[Sc]
+2.2 -2.9 69 -1 -1 1012.6 1007.8 +1.4
09 16.03 ЮВ 3 20 км 10/10 600 м
[Sc]
+4.1 -1.8 65 +1 +1 1010.8 1006.0
12 16.03 Ю 2 20 км 10/10 600 м
[Sc]
+5.6 -0.7 64 +3 +3 1009.5 1004.9
15 16.03 Ю 1 20 км 10/10 600 м
[Sc]
+6.0 +0.1 66 +5 +5 1009.0 1004.3 +6.5
18 16.03 СЗ 1 10 км 10/10 600 м
[Sc]
+4.8 +0.3 73 +4 +4 1009.7 1005.0
21 16.03 штиль 0 10 км 10/10 600 м
[Sc]
+4.1 +0.4 77 +3 +3 1009.4 1004.7
00 17.03 штиль 0 10 км слаб. дождь 10/0 600 м
[As op]
+3.6 +2.7 94 +2 +2 1009.6 1004.9
03 17.03 штиль 0 10 км слаб. дождь 10/0 300 м
[As op]
+3.1 +2.5 96 +2 +2 1010.0 1005.3 +2.8 3
06 17.03 СЗ 1 2000 м слаб. дождь 10/0 300 м
[As op]
+3.7 +3.2 97 +2 +3 1011.6 1006.9
09 17.03 СВ 2 20 км {дождь} 10/10 600 м
[Sc]
+5.8 +3.6 86 +3 +3 1012.2 1007.5
12 17.03 В 3 20 км {дождь} 10/10 600 м
[Sc]
+6.4 +3.4 81 +3 +3 1012.6 1008.0
15 17.03 В 2 20 км 9/9 600 м
[Sc]
+5.1 +3.3 88 +2 +2 1014.4 1009.7 +7.2 2
18 17.03 СЗ 1 10 км 10/10 600 м
[Sc]
+4.1 +3.2 94 +3 +3 1017.2 1012.4
21 17.03 СВ 1 2000 м дымка 10/10 300 м
[St]
+3.9 +3.4 97 +2 +2 1018.0 1013.3
00 18.03 СВ 1 4000 м дымка 10/10 300 м
[St]
+3.3 +2.1 92 +2 +2 1019.3 1014.5
03 18.03 СВ 1 10 км 8/8 600 м
[Sc]
+2.8 +1.6 92 +1 +1 1021.1 1016.3 +2.8
06 18.03 В 2 20 км 10/10 600 м
[Sc]
+3.1 +1.3 88 0 0 1023.8 1019.0 +2.4
09 18.03 СВ 2 20 км 10/10 600 м
[Sc]
+5.8 +1.5 74 +4 +4 1024.5 1019.7
12 18.03 СВ 3 20 км 10/10 600 м
[Sc]
+7.4 +1.3 65 +5 +5 1025.1 1020.3
15 18.03 В 2 20 км 8/8 600 м
[Sc]
+5.9 +1.3 72 +4 +4 1026.5 1021.7 +7.6
18 18.03 В 2 10 км 10/10 600 м
[Sc]
+4.1 +0.4 77 +1 +1 1028.1 1023.3
21 18.03 штиль 0 10 км 10/10 600 м
[Sc]
+3.3 -0.1 78 +2 +2 1028.7 1023.9
00 19.03 В 1 10 км 10/10 600 м
[Sc]
+2.4 -0.2 83 +1 +1 1028.7 1023.9
03 19.03 В 2 10 км 10/10 600 м
[Sc]
+1.3 -0.2 90 -2 -2 1029.7 1024.8 +1.2
06 19.03 В 2 4000 м дымка 10/10 300 м
[St]
+0.6 -0.3 94 -3 -3 1030.6 1025.8 +0.6
09 19.03 ЮЗ 2 20 км 3/3 600 м
[Sc]
+4.8 -1.3 65 +3 +9 1030.1 1025.3
12 19.03 З 2 20 км ясно +8.5 -1.4 50 +7 +12 1028.8 1024.0
15 19.03 З 1 20 км 1/0
[Ci fib]
+8.0 -1.1 53 +8 +8 1028.4 1023.6 +9.4
18 19.03 штиль 0 10 км 3/0
[Ci fib]
+1.4 -0.5 87 0 0 1029.1 1024.3
21 19.03 штиль 0 10 км ясно -0.3 -2.7 84 -1 -1 1029.3 1024.4
00 20.03 С 1 10 км ясно -2.8 -3.6 94 -5 -5 1029.2 1024.3
03 20.03 С 1 10 км ясно -3.7 -4.4 95 -6 -6 1028.9 1024.0 -4.0
06 20.03 штиль 0 20 км ясно +3.5 -3.2 62 +3 +9 1028.9 1024.1 -4.0
09 20.03 ЮЗ 2 20 км ясно +9.3 -4.5 37 +8 +18 опасность
простуды
1027.8 1023.1
12 20.03 Ю 1 20 км ясно +11.8 -1.9 38 +12 +18 1026.1 1021.5
15 20.03 ЮЗ 1 20 км ясно +9.9 -1.2 46 +10 +10 1025.3 1020.6 +12.0
18 20.03 В 1 10 км ясно +2.1 -1.3 78 +1 +1 1025.5 1020.7
21 20.03 штиль 0 10 км ясно -0.6 -2.0 90 -2 -2 1025.3 1020.4
00 21.03 штиль 0 10 км ясно -2.5 -3.4 94 -4 -4 1024.8 1019.9
03 21.03 штиль 0 10 км ясно -2.2 -2.9 95 -4 -4 1023.7 1018.8 -3.1
06 21.03 Ю 1 20 км ясно +6.6 +0.7 66 +6 +12 1023.3 1018.6

 

Местоположение метеостанции Калач-на-Дону (Волгоградская область, Россия): широта 48.68 долгота 43.48 высота над уровнем моря 38 м.

В архиве по умолчанию представлена погода в Калаче-на-Дону за последнюю неделю. Архивные данные за месяц целиком и за предыдущие месяцы, начиная с января 2011 года, Вы можете получить, выбрав интересующий диапазон дат из раскрывающегося списка и нажав кнопку "Ввод!".


*Определитесь, кто Вы:
робот инопланетянин человек

Внимание! Время в таблицах - всемирное. Для получения местного времени необходимо прибавить поправку, которая равна 3 ч.

Смотрите также архив погоды в соседних городах и на ближайших метеорологических станциях:

Погода в Нижнем Чире (Волгоградская область, Россия) (47 км)
Погода в Волгограде (Волгоградская область, Россия) (66 км)
Погода в Волгограде город (Волгоградская область, Россия) (71 км)
Погода в Иловле (Волгоградская область, Россия) (79 км)
Погода в Серафимовиче (Волгоградская область, Россия) (113 км)
Погода в Котельниково (Волгоградская область, Россия) (119 км)
Погода в Малых Дербетах (Калмыкия, Россия) (123 км)
Погода в Морозовске (Ростовская область, Россия) (124 км)
Погода в Фролове (Волгоградская область, Россия) (125 км)
Погода в Боковской (Ростовская область, Россия) (135 км)

Пояснения к столбцам:

Ветер - указаны скорость ветра в м/с - средняя за 10 мин, порывы в срок и между сроками (в фигурных скобках) и направление, откуда дует ветер: С - северный, СВ - северо-восточный, В - восточный, ЮВ - юго-восточный, Ю - южный, ЮЗ - юго-западный, З - западный, СЗ - северо-западный.
Видимость - горизонтальная дальность видимости в метрах или километрах. При видимости от 1 до 10 км при отсутствии осадков обычно наблюдается дымка, при ухудшении видимости до 1 км и менее - туман. В сухую погоду видимость может ухудшаться дымом, пылью или мглою.
Явления - указаны атмосферные явления, наблюдавшиеся в срок или в последний час перед сроком; фигурными скобками обозначены явления, наблюдавшиеся между сроками (за 1-3 часа до срока); квадратными скобками обозначены град или гололедные отложения с указанием их диаметра в мм.
Облачность - указаны через наклонную черту общая и нижняя облачность в баллах и высота нижней границы облаков в метрах; квадратными скобками обозначены формы облаков: Ci - перистые, Cs - перисто-слоистые, Cc - перисто-кучевые, Ac - высококучевые, As - высокослоистые, Sc - слоисто-кучевые, Ns - слоисто-дождевые, Cu - кучевые, Cb - кучево-дождевые. Подробнее классификацию облаков см. в Атласе облаков (PDF).
T - Температура воздуха - температура, измеренная на высоте 2 м над землей.
Td - Температура точки росы - температура, при понижении до которой содержащийся в воздухе водяной пар достигнет насыщения.
f - Относительная влажность воздуха - влажноcть воздуха, измеренная на высоте 2 м над землей.
Te - Эффективная температура - температура, которую ощущает одетый по сезону человек в тени. Характеристика душности погоды. При расчете учитывается влияние влажности воздуха и скорости ветра на теплоощущения человека.
Tes - Эффективная температура на солнце - температура, которую ощущает человек, с поправкой на солнечный нагрев. Характеристика знойности погоды. Зависит от высоты солнца над горизонтом, облачности и скорости ветра. Ночью, в пасмурную погоду, а также при ветре 12 м/с и более поправка равна нулю.
P - Атмосферное давление - приведенное к уровню моря атмосферное давление.
Po - Атмосферное давление - измеренное на уровне метеостанции атмосферное давление.
Tmin - Минимальная температура - минимум температуры воздуха на высоте 2 м над землей.
Tmax - Максимальная температура - максимум температуры воздуха на высоте 2 м над землей.
R - Количество осадков - Количество выпавших осадков за период времени, мм. При наведении курсора мыши на число - период времени, за который выпало указанное количество осадков.
R24 - Количество осадков - Количество выпавших осадков за 24 часа, мм.
S - Снежный покров - Высота снежного покрова, см. При наведении курсора мыши на число - состояние снежного покрова и степень покрытия местности в баллах.